Regional Weather Roundup
Issued by NWS

Home | Current Version | Previous Version | Text Only | Print | Product List | Glossary On
Versions: 1 2 3 4 5 6 7 8 9 10 11 12 13 14 15 16 17 18 19 20 21 22 23 24 25 26 27 28 29 30 31 32 33 34 35 36 37 38 39 40 41 42 43 44 45 46 47 48 49 50
000
ASUS43 KFSD 190910
RWRSD

WEATHER ROUNDUP FOR SOUTH DAKOTA
NATIONAL WEATHER SERVICE SIOUX FALLS SD
400 AM CDT SAT AUG 19 2017

NOTE: "FAIR" INDICATES FEW OR NO CLOUDS BELOW 12,000 FEET WITH NO
SIGNIFICANT WEATHER AND/OR OBSTRUCTIONS TO VISIBILITY.


SDZ001>005-009-010-012>017-191000-
NORTHWEST AND NORTH CENTRAL SOUTH DAKOTA

CITY           SKY/WX    TMP DP  RH WIND       PRES   REMARKS
BUFFALO          N/A     60  48  64 SW8       29.82F
FAITH            N/A     58  52  80 S15       29.90F
MOBRIDGE       CLEAR     63  59  87 S10       29.90F
$$

SDZ012>016-024>037-041>051-057-063-072>074-191000-
SOUTHWEST AND SOUTH CENTRAL SOUTH DAKOTA

CITY           SKY/WX    TMP DP  RH WIND       PRES   REMARKS
RAPID CTY ARPT CLEAR     58  48  69 SE10      29.93F
PIERRE         CLEAR     62  55  77 S9        29.92F
CUSTER         CLEAR     53  40  61 NW5       30.08F
ELLSWORTH AFB  CLEAR     64  48  56 SE12      29.91F
PHILIP         CLEAR     63  52  67 CALM      29.92F
PINE RIDGE     CLEAR     68  53  58 S17G23    29.94F
SPEARFISH      FAIR      77  41  27 SW15G25   29.92F
WINNER         FAIR      64  57  78 S10       29.96F
$$

SDZ004>011-016>023-039-040-191000-
NORTHEAST SOUTH DAKOTA

CITY           SKY/WX    TMP DP  RH WIND       PRES   REMARKS
ABERDEEN       CLEAR     53  53 100 S5        29.92S
WATERTOWN      FOG       55  55 100 CALM      29.93S VSB 1/4
BROOKINGS      CLEAR     54  54 100 CALM      29.94S
SISSETON         N/A     58  56  93 SW7       29.89F
$$

SDZ017-020-022-023-036>040-048>070-191000-
SOUTHEAST SOUTH DAKOTA

CITY           SKY/WX    TMP DP  RH WIND       PRES   REMARKS
SIOUX FALLS    CLEAR     56  56 100 W3        29.94S
HURON          CLEAR     58  56  93 SE5       29.94S
CHAMBERLAIN    CLEAR     58  58 100 CALM      29.96S
MITCHELL       CLEAR     55  54  96 CALM      29.95F FOG
YANKTON        CLEAR     56  54  93 W5        29.96S
$$

ABBREVIATIONS USED IN REMARKS
   TC - TEMPERATURE IN CELSIUS
  WCI - WIND CHILL INDEX
   HX - HEAT INDEX
  VSB - VISIBILITY





USA.gov is the U.S. government's official web portal to all federal, state and local government web resources and services.